Regional Weather Roundup
Issued by NWS State College, PA

Home | Current Version | Previous Version | Graphics & Text | Print | Product List | Glossary Off
Versions: 1 2 3 4 5 6 7 8 9 10 11 12 13 14 15 16 17 18 19 20 21 22 23 24 25 26 27 28 29 30 31 32 33 34 35 36 37 38 39 40 41 42 43 44 45 46 47 48 49 50

048
ASUS41 KCTP 291210
RWRCTP

REGIONAL WEATHER ROUNDUP
NATIONAL WEATHER SERVICE STATE COLLEGE PA
800 AM EDT SAT APR 29 2017

Note: "fair" indicates few or no clouds below 12,000 feet with no
significant weather and/or obstructions to visibility.

* = STATION THAT DOES NOT REPORT PRECIPITATION /E.G. RAIN...SNOW...ETC/
    THUNDER OR FOG.

PAZ002>004-007>009-013>016-020>023-029>032-291300-
WESTERN PENNSYLVANIA

CITY           SKY/WX    TMP DP  RH WIND       PRES   REMARKS
ERIE           LGT RAIN  52  52 100 N5        30.07R VSB 1/2
MEADVILLE      LGT RAIN  55  54  96 N3        30.06R
FRANKLIN*      CLOUDY    54  48  82 CALM      30.08R
NEW CASTLE     CLOUDY    55  54  96 E3        30.07R
BEAVER COUNTY  NOT AVBL
BUTLER*        CLOUDY    57  54  88 SW6       30.08R
PITTSBURGH INT CLOUDY    63  60  90 SW10      30.07R
PITTSBURGH     CLOUDY    63  58  83 S8        30.09R
INDIANA*       SUNNY     59  59 100 W5        30.12R
LATROBE        CLOUDY    64  63  94 W15       30.10R
WASHINGTON CO* CLOUDY    63  57  82 SW12G21   30.12R
$$

PAZ004>006-010>012-017>019-024>028-033>037-041-042-045-046-049>053-291300-
CENTRAL PENNSYLVANIA

CITY           SKY/WX    TMP DP  RH WIND       PRES   REMARKS
BRADFORD       CLOUDY    57  54  89 W5        30.07R
DUBOIS         CLOUDY    57  54  89 W7        30.06R
CLEARFIELD     CLOUDY    53  53 100 S5        30.08R FOG
JOHNSTOWN      CLOUDY    61  58  90 W12       30.10R
ALTOONA        LGT RAIN  64  61  90 S24G33    30.05F
STATE COLLEGE  MOSUNNY   54  52  94 SW7       30.06R
WILLIAMSPORT   NOT AVBL
SELINSGROVE    CLOUDY    58  57  97 CALM      30.05R FOG
FT INDIANTOWN  FOG       64  64 100 CALM      30.05R VSB 1
CAPITAL CITY   CLOUDY    66  63  90 SW5       30.05R FOG
HARRISBURG     CLOUDY    66  66 100 CALM      30.05R FOG
YORK           CLOUDY    70  64  81 SW7       30.06R
$$

PAZ038>040-043-044-047-048-054-055-060>062-067>071-291300-
EASTERN PENNSYLVANIA

CITY           SKY/WX    TMP DP  RH WIND       PRES   REMARKS
SCRANTON       CLOUDY    58  56  93 SW3       30.01R FOG
MOUNT POCONO   CLOUDY    60  60 100 W7        30.02R
ALLENTOWN      CLOUDY    63  58  83 W3        30.00R
QUAKERTOWN*    CLOUDY    64  64 100 SW3       30.03R VSB 1/4
READING        PTSUNNY   64  64 100 W3        30.03R FOG
LANCASTER      CLOUDY    67  66  97 W6        30.06R FOG
COATESVILLE    CLOUDY    66  66 100 CALM      30.06R FOG
POTTSTOWN      CLOUDY    65  65 100 CALM      30.05R FOG
BLUE BELL      MOSUNNY   64  64 100 SW3       30.04R
DOYLESTOWN     MOSUNNY   66  66 100 SW5       30.02R
WILLOW GROVE   NOT AVBL
NORTH PHILA    CLOUDY    69  67  93 SW3       30.03R FOG
PHILADELPHIA   CLOUDY    69  66  90 SW8       30.03R FOG
$$




USA.gov is the U.S. government's official web portal to all federal, state and local government web resources and services.